1288569629128,3.00503
1288569689128,3.06852
1288569749128,3.03025
1288569809128,3.04040
1288569869128,3.08355
1288569929128,3.00415
1288569989128,3.02701
1288570049128,3.04254
1288570109128,3.05368
1288570169128,3.04177
1288570229128,3.03148
1288570289128,3.00393
1288570349128,2.97551
1288570409128,3.02049
1288570469128,3.01601
1288570529128,2.96532
1288570589128,3.00650
1288570649128,3.03411
1288570709128,3.03758
1288570769128,3.05741
1288570829128,3.01917
1288570889128,2.95910
1288570949128,2.94254
1288571009128,2.97717
1288571069128,3.05273
1288571129128,3.04944
1288571189128,3.02636
1288571249128,3.01260
1288571309128,2.98934
1288571369128,3.03635
1288571429128,3.05420
1288571489128,3.05302
1288571549128,3.00825
1288571609128,3.04458
1288571669128,2.99525
1288571729128,2.99302
1288571789128,3.01401
1288571849128,3.01366
1288571909128,3.03963
1288571969128,2.99778
1288572029128,2.94455
1288572089128,2.95996
1288572149128,3.00634
1288572209128,2.97565
1288572269128,3.01849
1288572329128,2.99879
1288572389128,2.95338
1288572449128,2.93241
1288572509128,2.98252
1288572569128,2.99060
1288572629128,2.98385
1288572689128,2.97406
1288572749128,2.99594
1288572809128,2.96250
1288572869128,2.95132
1288572929128,3.02539
1288572989128,3.01098
1288573049128,3.00301
1288573109128,2.95601
1288573169128,3.04057
1288573229139,3.01165
1288573289139,3.00887
1288573349139,2.98915
1288573409139,2.97025
1288573469139,2.97092
1288573529139,2.96894
1288573589139,2.93815
1288573649139,2.96998
1288573709139,2.99328
1288573769139,2.97636
1288573829139,2.98169
1288573889139,2.93751
1288574489139,3.01538
1288574549139,2.99493
1288574609139,2.98863
1288574669139,2.98013
1288574729139,2.96968
1288574789139,2.95362
1288574849139,2.97439
1288574909139,3.00737
1288574969139,3.01992
1288575029139,3.00641
1288575089139,2.94504
1288575149139,2.96298
1288575209139,2.97436
1288575269139,2.95787
1288575329139,2.99615
1288575389139,3.00709
1288575449139,3.00470
1288575509139,2.94411
1288575569139,2.99385
1288575629139,2.98895
1288575689139,2.94797
1288575749139,2.93148
1288575809139,2.98533
1288575869139,2.90837
1288575929139,2.93802
1288575989139,2.97817
1288576049139,3.00911
1288576109139,2.95816
1288576169139,2.95857
1288576229139,2.99889
1288576289139,2.91434
1288576349139,2.93127
1288576409139,2.94887
1288576469139,2.95230
1288576529139,2.96969
1288576589139,2.94722
1288576649139,2.93923
1288576709139,2.97567
1288576769139,2.93673
1288576829149,2.94916
1288576889149,2.94909
1288576949149,2.89751
1288577009149,2.92900
1288577069149,2.92027
1288577129149,2.97072
1288577189149,2.98643
1288577249149,3.01850
1288577309149,3.00425
1288577369149,2.96922
1288577429149,2.97711
1288577489149,2.95289
1288577549149,2.89606
1288577609149,2.93601
1288577669149,2.91131
1288577729149,2.96775
1288577789149,3.00643
1288577849149,2.97493
1288577909149,2.91072
1288577969149,2.97427
1288578029149,2.94401
1288578089149,2.93121
1288578149149,2.88898
1288578209149,2.92056
1288578269149,2.90502
1288578329149,2.92547
1288578389149,2.97473
1288578449149,2.96426
1288578509149,2.97695
1288578569149,2.95193
1288578629149,2.96425
1288578689149,2.95094
1288578749149,2.95414
1288578809149,2.96601
1288578869149,2.96942
1288578929149,2.92281
1288578989149,2.94463
1288579049149,2.87808
1288579109149,2.91581
1288579169149,2.92324
1288579229149,2.98902
1288579289149,2.95494
1288579349149,2.95540
1288579409149,2.95791
1288579469149,2.96257
1288579529149,2.96178
1288579589149,2.98773
1288579649149,2.98039
1288579709149,2.96248
1288579769149,2.96499
1288579829149,2.92581
1288579889149,2.96802
1288579949149,2.97553
1288580009149,2.97263
1288580069149,2.96603
1288580129149,2.98170
1288580189149,2.96404
1288580249149,2.95878
1288580309149,2.91825
1288580369149,2.90573
1288580429160,2.91623
1288580489160,2.91706
1288580549160,2.89403
1288580609160,2.92015
1288580669160,2.92358
1288580729160,2.92379
1288580789160,2.92638
1288580849160,2.92151
1288580909160,2.96173
1288580969160,2.94713
1288581029160,2.92511
1288581089160,2.98451
1288581149160,2.97205
1288581209160,2.92018
1288581269160,2.94361
1288581329160,2.91094
1288581389160,2.87012
1288581449160,2.94251
1288581509160,2.95456
1288581569160,2.94054
1288581629160,2.94319
1288581689160,2.93832
1288581749160,2.99741
1288581809160,2.93265
1288581869160,2.94703
1288581929160,2.93917
1288581989160,2.98571
1288582049160,2.94260
1288582109160,2.97250
1288582169160,2.98403
1288582229160,2.98099
1288582289160,2.93083
1288582349160,2.96456
1288582409160,2.96042
1288582469160,2.90304
1288582529160,2.90441
1288582589160,2.88926
1288582649160,2.93714
1288582709160,2.95490
1288582769160,2.96245
1288582829160,2.93824
1288582889160,2.95310
1288582949160,2.96606
1288583009160,2.95674
1288583069160,2.96083
1288583129160,2.83898
1288583189160,2.94492
1288583249160,2.92037
1288583309160,2.95521
1288583369160,2.95400
1288583429160,2.99446
1288583489160,2.94798
1288583549160,2.95349
1288583609160,2.98130
1288583669160,2.93375
1288583729160,2.96883
1288583789160,2.94039
1288583849160,2.96611
1288583909160,2.94691
1288583969160,2.96001
1288584029170,2.97154
1288584089170,2.97896
1288584149170,2.97012
1288584209170,2.93734
1288584269170,2.97057
1288584329170,2.93918
1288584389170,2.95231
1288584449170,2.96929
1288584509170,3.00637
1288584569170,2.90708
1288584629170,2.96213
1288584689170,2.95412
1288584749170,2.91920
1288584809170,2.93654
1288584869170,2.94576
1288584929170,2.93665
1288584989170,2.89928
1288585049170,2.90535
1288585109170,2.95877
1288585169170,2.89670
1288585229170,2.93599
1288585289170,2.97703
1288585349170,2.97868
1288585409170,2.97572
1288585469170,3.01502
1288585529170,2.99319
1288585589170,3.00057
1288585649170,2.96279
1288585709170,2.98395
1288585769170,2.98785
1288585829170,2.96277
1288585889170,2.97377
1288585949170,2.96735
1288586009170,2.96309
1288586069170,2.97103
1288586129170,2.93125
1288586189170,2.98051
1288586249170,2.98118
1288586309170,2.94840
1288586369170,3.00992
1288586429170,3.05412
1288586489170,3.11117
1288586549170,3.11491
1288586609170,3.11491
1288586669170,3.10624
1288586729170,3.08199
1288586789170,3.00390
1288586849170,3.01974
1288586909170,3.02794
1288586969170,3.06933
1288587029170,3.00236
1288587089170,2.97005
1288587149170,2.99078
1288587209170,3.04514
1288587269170,3.00719
1288587329170,3.00696
1288587389170,3.01402
1288587449170,2.99618
1288587509170,3.02817
1288587569170,2.98040
1288587629180,3.02404
1288587689180,2.98371
1288587749180,3.01699
1288587809180,3.02387
1288587869180,3.01383
1288587929180,2.97750
1288587989180,2.94324
1288588049180,2.99526
1288588109180,2.94543
1288588169180,2.97759
1288588229180,2.95324
1288588289180,2.98078
1288588349180,2.95160
1288588409180,2.99744
1288588469180,2.89493
1288588529180,2.95445
1288588589180,2.90576
1288588649180,2.95078
1288588709180,2.96593
1288588769180,2.93960
1288588829180,2.92683
1288588889180,2.95722
1288588949180,3.01655
1288589009180,2.99628
1288589069180,2.95430
1288589129180,2.95891
1288589189180,2.94788
1288589249180,2.94668
1288589309180,2.90508
1288589369180,2.93128
1288589429180,2.92761
1288589489180,2.92908
1288589549180,2.97528
1288589609180,2.96310
1288589669180,2.88396
1288589729180,2.95561
1288589789180,2.99128
1288589849180,2.89124
1288589909180,2.88991
1288589969180,2.93112
1288590029180,2.91213
1288590089180,2.99279
1288590149180,2.96208
1288590209180,2.98214
1288590269180,2.97391
1288590329180,2.98643
1288590389180,3.00020
1288590449180,2.95230
1288590509180,2.99313
1288590569180,2.96153
1288590629180,2.97010
1288590689180,2.97174
1288590749180,2.98181
1288590809180,2.97815
1288590869180,2.98373
1288590929180,2.97647
1288590989180,2.96574
1288591049180,3.00548
1288591109180,3.00640
1288591169180,2.99303
1288591229191,3.00153
1288591289191,2.98712
1288591349191,2.93850
1288591409191,2.94860
1288591469191,2.98921
1288591529191,2.91588
1288591589191,2.95172
1288591649191,2.97772
1288591709191,2.99216
1288591769191,2.98793
1288591829191,2.96963
1288591889191,2.97089
1288591949191,3.00347
1288592009191,2.98078
1288592069191,2.95117
1288592129191,2.91159
1288592189191,2.93411
1288592249191,2.94140
1288592309191,2.89347
1288592369191,2.98679
1288592429191,2.96588
1288592489191,2.96215
1288592549191,3.00452
1288592609191,2.96543
1288592669191,2.94995
1288592729191,3.00065
1288592789191,2.95112
1288592849191,2.94102
1288592909191,2.90009
1288592969191,2.94458
1288593029191,2.97701
1288593089191,2.98464
1288593149191,2.90632
1288593209191,2.87505
1288593269191,2.93366
1288593329191,2.94837
1288593389191,2.91574
1288593449191,2.95676
1288593509191,3.00700
1288593569191,2.99743
1288593629191,2.96085
1288593689191,2.91874
1288593749191,3.02377
1288593809191,2.99458
1288593869191,3.01103
1288593929191,3.01039
1288593989191,2.99659
1288594049191,2.96604
1288594109191,3.00122
1288594169191,3.00588
1288594229191,2.98688
1288594289191,2.96568
1288594349191,2.92021
1288594409191,2.91400
1288594469191,2.95439
1288594529191,2.96815
1288594589191,2.97640
1288594649191,2.98318
1288594709191,2.93447
1288594769191,2.99828
1288594829201,2.97678
1288594889201,2.98512
1288594949201,2.91637
1288595009201,2.94481
1288595069201,2.95342
1288595129201,2.94972
1288595189201,2.92964
1288595249201,2.96719
1288595309201,2.93144
1288595369201,2.95429
1288595429201,2.95173
1288595489201,2.94819
1288595549201,2.99253
1288595609201,2.95499
1288595669201,2.97519
1288595729201,2.96816
1288595789201,2.91988
1288595849201,2.92838
1288595909201,2.97926
1288595969201,2.92396
1288596029201,2.96407
1288596089201,2.99798
1288596149201,3.00768
1288596209201,3.03240
1288596269201,3.01481
1288596329201,2.93599
1288596389201,2.95497
1288596449201,2.96212
1288596509201,2.90401
1288596569201,2.96378
1288596629201,2.98460
1288596689201,2.99872
1288596749201,2.97872
1288596809201,2.99472
1288596869201,2.98306
1288596929201,2.91202
1288596989201,2.96287
1288597049201,2.95858
1288597109201,2.91669
1288597169201,2.94939
1288597229201,2.93755
1288597289201,2.94073
1288597349201,2.93636
1288597409201,2.96674
1288597469201,2.95661
1288597529201,2.96682
1288597589201,2.95618
1288597649201,3.01749
1288597709201,2.98187
1288597769201,2.92736
1288597829201,2.91968
1288597889201,2.91732
1288597949201,2.95172
1288598009201,2.93049
1288598069201,2.97525
1288598129201,2.99073
1288598189201,2.95301
1288598249201,3.02885
1288598309201,3.01267
1288598369201,3.00865
1288598429212,3.03273
1288598489212,2.96577
1288598549212,2.99206
1288598609212,2.99053
1288598669212,2.97145
1288598729212,2.93957
1288598789212,3.03205
1288598849212,3.05806
1288598909212,3.01830
1288598969212,3.02962
1288599029212,3.02638
1288599089212,3.01360
1288599149212,2.97868
1288599209212,2.99663
1288599269212,2.92709
1288599329212,2.90017
1288599389212,2.92388
1288599449212,2.92459
1288599509212,3.00453
1288599569212,3.02183
1288599629212,3.00863
1288599689212,2.95384
1288599749212,2.96331
1288599809212,2.96427
1288599869212,2.98922
1288599929212,2.97561
1288599989212,2.98604
1288600049212,2.98472
1288600109212,3.00258
1288600169212,2.98957
1288600229212,2.94791
1288600289212,2.91182
1288600349212,2.93359
1288600409212,2.93558
1288600469212,2.98593
1288600529212,2.99665
1288600589212,2.96436
1288600649212,2.95282
1288600709212,2.92503
1288600769212,2.97643
1288600829212,2.99920
1288600889212,2.97793
1288600949212,3.01354
1288601009212,2.94973
1288601069212,2.94307
1288601129212,2.95829
1288601189212,2.95942
1288601249212,2.92630
1288601309212,2.93624
1288601369212,2.93771
1288601429212,2.97948
1288601489212,2.94363
1288601549212,2.92497
1288601609212,2.96826
1288601669212,2.94907
1288601729212,2.93603
1288601789212,2.92694
1288601849212,2.96152
1288601909212,2.95050
1288601969212,2.98033
1288602029223,3.00891
1288602089223,3.00557
1288602149223,2.98254
1288602209223,2.91498
1288602269223,2.94467
1288602329223,2.95122
1288602389223,2.97234
1288602449223,3.02281
1288602509223,3.01067
1288602569223,2.97830
1288602629223,2.95149
1288602689223,2.96360
1288602749223,2.99801
1288602809223,3.01081
1288602869223,2.98630
1288602929223,2.93924
1288602989223,2.93331
1288603049223,2.97658
1288603109223,2.95885
1288603169223,2.97739
1288603229223,2.99410
1288603289223,2.98355
1288603349223,2.98386
1288603409223,3.00734
1288603469223,2.98460
1288603529223,3.00711
1288603589223,2.99583
1288603649223,2.98062
1288603709223,2.97526
1288603769223,2.99611
1288603829223,2.93514
1288603889223,2.92089
1288603949223,2.94612
1288604009223,2.92996
1288604069223,2.92307
1288604129223,2.95136
1288604189223,2.95560
1288604249223,2.94995
1288604309223,2.94300
1288604369223,3.00099
1288604429223,2.98386
1288604489223,2.97681
1288604549223,2.95703
1288604609223,2.96738
1288604669223,2.97804
1288604729223,3.00059
1288604789223,2.99981
1288604849223,2.97218
1288604909223,2.93585
1288604969223,2.92805
1288605029223,2.95071
1288605089223,2.93883
1288605149223,2.94772
1288605209223,2.96445
1288605269223,3.03303
1288605329223,2.96165
1288605389223,2.94305
1288605449223,2.92751
1288605509223,3.00548
1288605569223,2.96187
1288605629234,2.89914
1288605689234,2.94922
1288605749234,2.91298
1288605809234,2.92051
1288605869234,3.00441
1288605929234,2.95367
1288605989234,2.91456
1288606049234,2.97006
1288606109234,2.97725
1288606169234,2.97443
1288606229234,2.98078
1288606289234,2.97099
1288606349234,2.98575
1288606409234,2.91067
1288606469234,2.91952
1288606529234,2.93684
1288606589234,2.94209
1288606649234,2.88952
1288606709234,2.96925
1288606769234,2.97530
1288606829234,2.98953
1288606889234,2.96281
1288606949234,2.94956
1288607009234,2.97703
1288607069234,2.92071
1288607129234,2.94610
1288607189234,2.91676
1288607249234,2.99268
1288607309234,2.97748
1288607369234,2.99066
1288607429234,3.02287
1288607489234,2.91155
1288607549234,2.88246
1288607609234,2.92237
1288607669234,3.00986
1288607729234,2.97502
1288607789234,2.98004
1288607849234,3.01904
1288607909234,2.97736
1288607969234,2.90095
1288608029234,2.91463
1288608089234,2.98327
1288608149234,2.97327
1288608209234,2.89668
1288608269234,2.92132
1288608329234,2.92872
1288608389234,2.93016
1288608449234,2.95868
1288608509234,3.00179
1288608569234,2.98316
1288608629234,2.97940
1288608689234,2.96140
1288608749234,2.96600
1288608809234,2.95605
1288608869234,2.96615
1288608929234,2.92405
1288608989234,2.97777
1288609049234,2.94572
1288609109234,2.91896
1288609169234,2.90890
1288609229245,2.91050
1288609289245,2.89675
1288609349245,2.90567
1288609409245,2.92301
1288609469245,2.90582
1288609529245,2.96823
1288609589245,2.92498
1288609649245,2.92656
1288609709245,2.92349
1288609769245,2.87650
1288609829245,2.90058
1288609889245,2.90977
1288609949245,2.87199
1288610009245,2.94864
1288610069245,2.94670
1288610129245,2.91577
1288610189245,2.89180
1288610249245,2.88614
1288610309245,2.90759
1288610369245,2.88505
1288610429245,2.91763
1288610489245,2.92392
1288610549245,2.89233
1288610609245,2.88516
1288610669245,2.91063
1288610729245,2.95793
1288610789245,2.96358
1288610849245,2.91953
1288610909245,2.94974
1288610969245,2.96928
1288611029245,2.90136
1288611089245,2.95784
1288611149245,2.97759
1288611209245,2.95120
1288611269245,2.91835
1288611329245,2.93683
1288611389245,2.93992
1288611449245,2.92571
1288611509245,2.92126
1288611569245,2.89074
1288611629245,2.87853
1288611689245,2.87577
1288611749245,2.91073
1288611809245,2.87080
1288611869245,2.86252
1288611929245,2.89914
1288611989245,2.90767
1288612049245,2.91961
1288612109245,2.91600
1288612169245,2.93557
1288612229245,2.93174
1288612289245,2.92571
1288612349245,2.91304
1288612409245,2.95762
1288612469245,2.91452
1288612529245,2.90708
1288612589245,2.90720
1288612649245,2.92200
1288612709245,2.92240
1288612769245,2.92539
1288612829256,2.92993
1288612889256,2.94664
1288612949256,2.87652
1288613009256,2.90028
1288613069256,2.88809
1288613129256,2.87269
1288613189256,2.87311
1288613249256,2.88391
1288613309256,2.90228
1288613369256,2.88990
1288613429256,2.86010
1288613489256,2.88649
1288613549256,2.87044
1288613609256,2.89707
1288613669256,2.88701
1288613729256,2.87533
1288613789256,2.91357
1288613849256,2.90563
1288613909256,2.88522
1288613969256,2.85527
1288614029256,2.87205
1288614089256,2.89184
1288614149256,2.89829
1288614209256,2.89273
1288614269256,2.89490
1288614329256,2.93176
1288614389256,2.91523
1288614449256,2.89583
1288614509256,2.96735
1288614569256,2.92721
1288614629256,2.95949
1288614689256,2.89906
1288614749256,2.92682
1288614809256,2.92226
1288614869256,2.91989
1288614929256,2.92257
1288614989256,2.93368
1288615049256,2.93142
1288615109256,2.95864
1288615169256,2.93749
1288615229256,2.91176
1288615289256,2.89860
1288615349256,2.90502
1288615409256,2.92941
1288615469256,2.94115
1288615529256,2.91437
1288615589256,2.94440
1288615649256,2.98512
1288615709256,2.96103
1288615769256,2.91309
1288615829256,2.89486
1288615889256,2.93009
1288615949256,2.89898
1288616009256,2.90792
1288616069256,2.91558
1288616129256,2.90389
1288616189256,2.95407
1288616249256,2.90557
1288616309256,2.92344
1288616369256,2.89914
1288616429268,2.88596
1288616489268,2.88005
1288616549268,2.89527
1288616609268,2.89879
1288616669268,2.89204
1288616729268,2.90387
1288616789268,2.89668
1288616849268,2.91155
1288616909268,2.92250
1288616969268,2.89579
1288617029268,2.91528
1288617089268,2.88694
1288617149268,2.90103
1288617209268,2.88212
1288617269268,2.90260
1288617329268,2.86414
1288617389268,2.85593
1288617449268,2.88633
1288617509268,2.90760
1288617569268,2.89190
1288617629268,2.88000
1288617689268,2.86633
1288617749268,2.89760
1288617809268,2.92948
1288617869268,2.91992
1288617929268,2.87195
1288617989268,2.96081
1288618049268,2.94300
1288618109268,2.95862
1288618169268,2.93734
1288618229268,2.89606
1288618289268,2.88081
1288618349268,2.91922
1288618409268,2.89776
1288618469268,2.90865
1288618529268,2.94408
1288618589268,2.88940
1288618649268,2.86819
1288618709268,2.88418
1288618769268,2.89020
1288618829268,2.88381
1288618889268,2.86717
1288618949268,2.87177
1288619009268,2.95960
1288619069268,2.95774
1288619129268,2.93152
1288619189268,2.92063
1288619249268,2.97561
1288619309268,2.94710
1288619369268,2.89634
1288619429268,2.92971
1288619489268,2.92490
1288619549268,2.90979
1288619609268,2.86350
1288619669268,2.89440
1288619729268,2.90502
1288619789268,2.93637
1288619849268,2.89217
1288619909268,2.89000
1288619969268,2.87374
1288620029280,2.93504
1288620089280,2.91924
1288620149280,2.90014
1288620209280,2.96968
1288620269280,2.93048
1288620329280,2.92833
1288620389280,2.91623
1288620449280,2.96581
1288620509280,2.95290
1288620569280,2.92380
1288620629280,2.89295
1288620689280,2.88156
1288620749280,2.90921
1288620809280,2.87613
1288620869280,2.93166
1288620929280,2.95136
1288620989280,2.90693
1288621049280,2.93560
1288621109280,2.92694
1288621169280,2.90534
1288621229280,2.93495
1288621289280,2.95742
1288621349280,2.94633
1288621409280,2.90846
1288621469280,2.91841
1288621529280,2.90842
1288621589280,2.90329
1288621649280,2.93354
1288621709280,2.91136
1288621769280,2.93724
1288621829280,2.92945
1288621889280,2.95653
1288621949280,2.92652
1288622009280,2.91557
1288622069280,2.93016
1288622129280,2.95890
1288622189280,2.92596
1288622249280,2.95480
1288622309280,2.94542
1288622369280,2.92341
1288622429280,2.86804
1288622489280,2.91816
1288622549280,2.90607
1288622609280,2.91181
1288622669280,2.93640
1288622729280,2.90531
1288622789280,2.92081
1288622849280,2.94643
1288622909280,2.91562
1288622969280,2.88228
1288623029280,2.91948
1288623089280,2.91597
1288623149280,2.94696
1288623209280,2.95253
1288623269280,2.89851
1288623329280,2.89945
1288623389280,2.92113
1288623449280,2.95135
1288623509280,2.96018
1288623569280,2.95592
1288623629292,2.90694
1288623689292,2.90975
1288623749292,2.94603
1288623809292,2.90225
1288623869292,2.89653
1288623929292,2.94867
1288623989292,2.95467
1288624049292,2.94498
1288624109292,2.94846
1288624169292,2.95205
1288624229292,2.92491
1288624289292,2.94186
1288624349292,2.88140
1288624409292,2.89697
1288624469292,2.92573
1288624529292,2.91939
1288624589292,2.95645
1288624649292,2.93278
1288624709292,2.95430
1288624769292,2.92109
1288624829292,2.92965
1288624889292,2.90849
1288624949292,2.90387
1288625009292,2.93077
1288625069292,2.90631
1288625129292,2.94527
1288625189292,2.96211
1288625249292,2.94321
1288625309292,2.92832
1288625369292,2.93979
1288625429292,2.93091
1288625489292,2.89001
1288625549292,2.91360
1288625609292,2.91823
1288625669292,2.91763
1288625729292,2.91108
1288625789292,2.87601
1288625849292,2.94921
1288625909292,2.94432
1288625969292,2.95441
1288626029292,2.95409
1288626089292,2.98582
1288626149292,2.92879
1288626209292,2.89145
1288626269292,2.95919
1288626329292,2.90091
1288626389292,2.92972
1288626449292,2.91225
1288626509292,2.91814
1288626569292,2.87782
1288626629292,2.93020
1288626689292,2.93503
1288626749292,2.98517
1288626809292,2.94692
1288626869292,2.94079
1288626929292,2.96448
1288626989292,2.91268
1288627049292,2.90706
1288627109292,2.93403
1288627169292,2.92346
1288627229304,2.95390
1288627289304,2.95218
1288627349304,2.92882
1288627409304,2.98419
1288627469304,3.01014
1288627529304,2.95494
1288627589304,2.93124
1288627649304,2.96963
1288627709304,2.90370
1288627769304,2.91741
1288627829304,2.97928
1288627889304,2.94178
1288627949304,2.93541
1288628009304,2.93823
1288628069304,2.93246
1288628129304,2.94995
1288628189304,2.91019
1288628249304,2.92372
1288628309304,2.92448
1288628369304,2.96806
1288628429304,2.96140
1288628489304,2.97654
1288628549304,2.97458
1288628609304,2.95401
1288628669304,2.98971
1288628729304,2.92124
1288628789304,2.94880
1288628849304,2.90672
1288628909304,2.92501
1288628969304,2.93158
1288629029304,3.00109
1288629089304,2.93597
1288629149304,2.89501
1288629209304,2.93579
1288629269304,2.92782
1288629329304,2.95496
1288629389304,2.93040
1288629449304,2.96574
1288629509304,2.92454
1288629569304,2.94493
1288629629304,2.97508
1288629689304,2.95152
1288629749304,2.91290
1288629809304,2.92585
1288629869304,2.92276
1288629929304,2.92329
1288629989304,2.91629
1288630049304,2.92405
1288630109304,2.91713
1288630169304,2.94630
1288630229304,2.91916
1288630289304,2.92804
1288630349304,2.91512
1288630409304,2.93858
1288630469304,2.96678
1288630529304,2.94547
1288630589304,2.94667
1288630649304,2.91456
1288630709304,2.93004
1288630769304,2.93318
1288630829316,2.92660
1288630889316,2.95725
1288630949316,2.96878
1288631009316,2.98997
1288631069316,2.99386
1288631129316,2.97465
1288631189316,2.94066
1288631249316,3.00503
1288631309316,2.99553
1288631369316,2.94722
1288631429316,3.02811
1288631489316,2.98226
1288631549316,2.90955
1288631609316,2.92366
1288631669316,2.96095
1288631729316,2.94866
1288631789316,2.98658
1288631849316,2.94544
1288631909316,2.94128
1288631969316,2.93486
1288632029316,2.93443
1288632089316,2.93057
1288632149316,2.92657
1288632209316,2.93169
1288632269316,2.92805
1288632329316,2.92163
1288632389316,2.93304
1288632449316,2.95844
1288632509316,2.96451
1288632569316,2.95678
1288632629316,2.96216
1288632689316,2.90739
1288632749316,2.91164
1288632809316,2.91328
1288632869316,3.03019
1288632929316,2.94681
1288632989316,2.99410
1288633049316,2.94665
1288633109316,2.92802
1288633169316,2.97030
1288633229316,2.90404
1288633289316,2.92794
1288633349316,2.93132
1288633409316,2.94095
1288633469316,2.94986
1288633529316,2.91778
1288633589316,2.95777
1288633649316,2.90704
1288633709316,2.92257
1288633769316,2.93729
1288633829316,2.92310
1288633889316,2.96000
1288633949316,2.95833
1288634009316,2.98117
1288634069316,2.94425
1288634129316,2.91808
1288634189316,2.92902
1288634249316,2.92126
1288634309316,2.91809
1288634369316,2.93281
1288634429328,2.97996
1288634489328,2.91835
1288634549328,2.93777
1288634609328,3.00067
1288634669328,3.00471
1288634729328,2.98035
1288634789328,3.00259
1288634849328,2.99845
1288634909328,2.91300
1288634969328,2.94541
1288635029328,2.92762
1288635089328,2.94646
1288635149328,2.91937
1288635209328,2.92785
1288635269328,2.97293
1288635329328,2.98872
1288635389328,2.92252
1288635449328,2.90870
1288635509328,2.91061